Location: Dürabuch
(48.2640°N, 11.2185°E)
Time: 19:12:35
(UTC+00:00)

SL-4 R/B - Pass Details

Date: 23 May 2024
Orbit: 412 x 600 km, 51.6° (Epoch: 24 June)

Event Time Altitude Azimuth Distance (km) Brightness Sun altitude
Exits shadow 01:12:02 - 149° (SSE) 1,934 4.5 -16.0°
Reaches altitude 10° 01:12:28 10° 143° (SE) 1,887 4.5 -16.0°
Maximum altitude 01:13:34 11° 128° (SE) 1,843 4.6 -15.9°
Drops below altitude 10° 01:14:41 10° 113° (ESE) 1,910 4.8 -15.8°
Sets 01:18:45 0° 77° (ENE) 2,845 6.3 -15.5°
